Adderbury Half Marathon 2018
Skip Navigation Links
Results
Leaderboard
Course Map
Race Series
Race Stats
8 Jul 2018
HyperLink
Click on a name for more detailed results
Page 1 of 2 (87 items)
[1]2
Pos
Bib No
Fav
Share
Print
Name
Time *
Chip Time
Gender
Gen Pos
Club
Pace
189Joseph TURNER1:22:46.41:22:44.6Male1CAMBRIDGE & COLERIDGE AC 9.5 m/hr
242Ali HERBERT1:23:56.11:23:54.5Male2CHERWELL RUNNERS & JOGGERS 9.4 m/hr
3103Sam UPTON1:24:37.21:24:35.0Male3WITNEY ROAD RUNNERS 9.3 m/hr
451Ian KEEN1:26:56.71:26:54.8Male4  9.0 m/hr
535S├®bastien GARRIGUES1:27:49.51:27:47.6Male5ABINGDON AC 8.9 m/hr
6101Paul Jegou1:33:07.61:33:05.0Male6WHITE HORSE HARRIERS 8.4 m/hr
787Jeffrey TRYBUS1:33:59.01:33:56.7Male7CHERWELL RUNNERS & JOGGERS 8.4 m/hr
8105Kevin Game1:37:08.81:37:06.7Male8WOODSTOCK HARRIERS AC 8.1 m/hr
957Nick MACEY1:39:32.31:39:27.7Male9  7.9 m/hr
1059Jenny MCBAIN1:40:47.41:40:43.4Female1ALCHESTER RUNNING CLUB 7.8 m/hr
1132Richard FRANCIS1:42:04.81:41:59.5Male10ALCHESTER RUNNING CLUB 7.7 m/hr
1241Jonny HAYNES1:42:22.71:42:20.5Male11  7.7 m/hr
1356Andrew MACDONALD1:42:23.51:42:19.6Male12CHERWELL RUNNERS & JOGGERS 7.7 m/hr
1498Shaun O'Gorman1:42:25.81:42:22.2Male13  7.7 m/hr
1582Dewi THOMAS1:43:40.11:43:36.2Male14CHERWELL RUNNERS & JOGGERS 7.6 m/hr
169Danny BATCHELOR1:44:22.21:44:17.8Male15CHERWELL RUNNERS & JOGGERS 7.5 m/hr
1795Katy Young1:45:22.21:45:18.7Female2  7.5 m/hr
1810Thomas BATCHELOR1:46:10.11:46:05.1Male16CHERWELL RUNNERS & JOGGERS 7.4 m/hr
1971Teresa REASON1:47:23.71:47:15.8Female3GADE VALLEY HARRIERS 7.3 m/hr
205Ben ANDERSON1:47:40.11:47:31.7Male17  7.3 m/hr
2172Ant REDHEAD1:48:40.31:48:35.7Male18CHERWELL RUNNERS & JOGGERS 7.2 m/hr
2223Darryl COULTER1:48:53.11:48:51.1Male19NENE VALLEY HARRIERS 7.2 m/hr
2331Stuart FOGARTY1:49:57.91:49:55.0Male20  7.1 m/hr
2494Ohemaa Powell1:51:03.71:50:58.1Female4  7.1 m/hr
2585Mark THORLEY1:51:19.11:51:12.8Male21CHERWELL RUNNERS & JOGGERS 7.1 m/hr
2669Mike POLLARD1:52:04.71:51:59.5Male22CHERWELL RUNNERS & JOGGERS 7.0 m/hr
27104Martin Halling1:52:35.11:52:27.0Male23  7.0 m/hr
2897Martin Byford1:54:00.31:53:52.5Male24  6.9 m/hr
2920Ian CHURCHILL1:55:13.81:55:06.6Male25  6.8 m/hr
3030Andrea FINNIGAN1:56:25.91:56:21.2Female5KIDLINGTON RUNNING CLUB 6.8 m/hr
31107Sam SUTER1:57:29.61:57:22.6Female6  6.7 m/hr
3237Robert GREEN1:57:49.71:57:43.5Male26WITNEY ROAD RUNNERS 6.7 m/hr
3319Richard CHINN2:00:58.12:00:49.8Male27  6.5 m/hr
3425John CRITCHFIELD2:01:58.32:01:49.2Male28HOOK NORTON HARRIERS 6.4 m/hr
3540Sam HARPER2:02:00.62:01:54.5Male29  6.4 m/hr
3676Christopher SMOWTON2:02:35.32:02:28.7Male30  6.4 m/hr
374Ronnie AMBROSE2:02:53.82:02:41.6Male31NORTHAMPTON ROAD RUNNERS 6.4 m/hr
3880Peter SUTTON2:02:59.62:02:52.3Male32CHERWELL RUNNERS & JOGGERS 6.4 m/hr
3927Paul DRUCE2:04:51.42:04:44.2Male33KIDLINGTON RUNNING CLUB 6.3 m/hr
4058Stuart MACLACHLAN2:06:18.62:06:11.9Male34  6.2 m/hr
4181Gary THACKER2:06:27.02:06:20.7Male35Wellingborough & District AC 6.2 m/hr
4214Ros BROOKS2:06:52.92:06:45.4Female7KENILWORTH RUNNERS 6.2 m/hr
4390Zoe WHITE2:09:42.32:09:33.4Female8WOODSTOCK HARRIERS AC 6.1 m/hr
4488Elizabeth TURNER2:10:54.62:10:51.0Female9HEADINGTON RR 6.0 m/hr
453Wendy AMBROSE2:11:07.32:10:56.3Female10NORTHAMPTON ROAD RUNNERS 6.0 m/hr
4624Vanda COX2:11:09.52:11:01.1Female11  6.0 m/hr
4736Jocelyn GRANGER2:11:47.62:11:42.7Female12NORTHAMPTON ROAD RUNNERS 6.0 m/hr
486Rose ASHTON 2:12:24.42:12:13.9Female13  5.9 m/hr
4996Simon Richardson2:12:41.32:12:30.3Male36  5.9 m/hr
5015Paul BROWN2:13:13.52:13:04.9Male37  5.9 m/hr
Page 1 of 2 (87 items)
[1]2
fb

HyperLink Copyright (c) G Vincent, 2018